Weather History for Tehachapi, CA

Change the Weather History Date:

Monday, November 5, 2012

  Actual Average Record
Temperature  
Mean Temperature 60 °F -  
Max Temperature 77 °F 65 °F 77 °F (2012)
Min Temperature 44 °F 38 °F 26 °F (2013)
Degree Days  
Heating Degree Days 4    
Growing Degree Days 10 (Base 50)    
Moisture  
Dew Point 21 °F    
Average Humidity 23    
Maximum Humidity 40    
Minimum Humidity 12    
Precipitation  
Precipitation 0.00 in - - ()
Sea Level Pressure  
Sea Level Pressure 30.27 in    
Wind  
Wind Speed 8 mph (ESE)    
Max Wind Speed 16 mph    
Max Gust Speed 25 mph    
Visibility 10 miles    
Events      
Averages and records for this station are not official NWS values.
T = Trace of Precipitation, MM = Missing Value Source: NWS Daily Summary

Daily Weather History Graph

Daily Weather History Graph

Search for Another Location

Airport:

Trip Planner

Search our weather history database for the weather conditions in past years. The results will help you decide how hot, cold, wet, or windy it might be!

Date:

Astronomy

Nov. 05, 2012 Rise Set
Actual Time 6:19 AM PST 4:54 PM PST
Civil Twilight 5:52 AM PST 5:21 PM PST
Nautical Twilight 5:22 AM PST 5:51 PM PST
Astronomical Twilight 4:52 AM PST 6:21 PM PST
Moon 10:36 PM PST (11/5) 11:41 AM PST (11/5)
Length of Visible Light 11h 28m
Length of Day
10h 35m
Waning Gibbous, 62% of the Moon is Illuminated
Nov 5
Waning Gibbous
Nov 6
Last Quarter
Nov 13
New
Nov 20
First Quarter
Nov 28
Full

Hourly Weather History & Observations

Time (PST) Temp. Windchill Dew Point Humidity Pressure Visibility Wind Dir Wind Speed Gust Speed Precip Events Conditions
12:15 AM 48.2 °F - 19.4 °F 32% 30.30 in 10.0 mi ESE 5.8 mph - N/A   Clear
12:35 AM 46.4 °F 42.9 °F 21.2 °F 37% 30.29 in 10.0 mi ESE 6.9 mph - N/A   Clear
12:55 AM 44.6 °F 41.4 °F 19.4 °F 37% 30.29 in 10.0 mi East 5.8 mph - N/A   Clear
1:15 AM 44.6 °F 40.2 °F 19.4 °F 37% 30.29 in 10.0 mi SE 8.1 mph - N/A   Clear
1:35 AM 46.4 °F 41.9 °F 19.4 °F 34% 30.29 in 10.0 mi SE 9.2 mph - N/A   Clear
1:55 AM 46.4 °F 41.5 °F 19.4 °F 34% 30.28 in 10.0 mi SE 10.4 mph - N/A   Clear
2:15 AM 46.4 °F 42.4 °F 19.4 °F 34% 30.28 in 10.0 mi ESE 8.1 mph - N/A   Clear
2:35 AM 44.6 °F 41.4 °F 17.6 °F 34% 30.28 in 10.0 mi SE 5.8 mph - N/A   Clear
2:55 AM 46.4 °F 42.4 °F 19.4 °F 34% 30.27 in 10.0 mi SE 8.1 mph - N/A   Clear
3:15 AM 50.0 °F - 17.6 °F 28% 30.27 in 10.0 mi ESE 6.9 mph - N/A   Clear
3:35 AM 50.0 °F - 17.6 °F 28% 30.27 in 10.0 mi East 6.9 mph - N/A   Clear
3:55 AM 50.0 °F - 15.8 °F 26% 30.27 in 10.0 mi East 8.1 mph - N/A   Clear
4:15 AM 50.0 °F - 15.8 °F 26% 30.27 in 10.0 mi East 5.8 mph - N/A   Clear
4:35 AM 50.0 °F - 15.8 °F 26% 30.27 in 10.0 mi ESE 8.1 mph - N/A   Clear
4:55 AM 50.0 °F - 15.8 °F 26% 30.27 in 10.0 mi East 5.8 mph - N/A   Clear
5:15 AM 51.8 °F - 15.8 °F 24% 30.28 in 10.0 mi ESE 6.9 mph - N/A   Clear
5:35 AM 48.2 °F - 15.8 °F 27% 30.28 in 10.0 mi ESE 6.9 mph - N/A   Clear
5:55 AM 53.6 °F - 15.8 °F 22% 30.28 in 10.0 mi SE 10.4 mph - N/A   Clear
6:15 AM 53.6 °F - 15.8 °F 22% 30.28 in 10.0 mi ESE 10.4 mph - N/A   Clear
6:35 AM 55.4 °F - 17.6 °F 23% 30.28 in 10.0 mi ESE 8.1 mph - N/A   Clear
6:55 AM 59.0 °F - 15.8 °F 19% 30.29 in 10.0 mi East 6.9 mph - N/A   Clear
7:15 AM 60.8 °F - 17.6 °F 19% 30.30 in 10.0 mi ESE 5.8 mph - N/A   Clear
7:35 AM 62.6 °F - 17.6 °F 18% 30.30 in 10.0 mi ESE 6.9 mph - N/A   Clear
7:55 AM 66.2 °F - 17.6 °F 15% 30.31 in 10.0 mi ESE 6.9 mph - N/A   Clear
8:15 AM 68.0 °F - 17.6 °F 15% 30.31 in 10.0 mi ESE 9.2 mph - N/A   Clear
8:35 AM 69.8 °F - 17.6 °F 14% 30.31 in 10.0 mi SE 12.7 mph - N/A   Clear
8:55 AM 71.6 °F - 19.4 °F 14% 30.31 in 10.0 mi SE 12.7 mph - N/A   Clear
9:15 AM 71.6 °F - 19.4 °F 14% 30.31 in 10.0 mi SE 10.4 mph - N/A   Clear
9:35 AM 73.4 °F - 19.4 °F 13% 30.31 in 10.0 mi SE 12.7 mph 21.9 mph N/A   Clear
9:55 AM 73.4 °F - 19.4 °F 13% 30.31 in 10.0 mi SE 15.0 mph 21.9 mph N/A   Clear
10:15 AM 73.4 °F - 19.4 °F 13% 30.31 in 10.0 mi ESE 12.7 mph 21.9 mph N/A   Clear
10:35 AM 75.2 °F - 19.4 °F 12% 30.30 in 10.0 mi ESE 11.5 mph 17.3 mph N/A   Clear
10:55 AM 75.2 °F - 19.4 °F 12% 30.30 in 10.0 mi ESE 12.7 mph 19.6 mph N/A   Clear
11:15 AM 75.2 °F - 19.4 °F 12% 30.29 in 10.0 mi SE 11.5 mph - N/A   Clear
11:35 AM 75.2 °F - 19.4 °F 12% 30.28 in 10.0 mi SE 11.5 mph 16.1 mph N/A   Clear
11:55 AM 75.2 °F - 19.4 °F 12% 30.27 in 10.0 mi East 9.2 mph 17.3 mph N/A   Clear
12:15 PM 77.0 °F - 21.2 °F 12% 30.26 in 10.0 mi SE 13.8 mph 20.7 mph N/A   Clear
12:35 PM 77.0 °F - 23.0 °F 13% 30.25 in 10.0 mi SE 13.8 mph 20.7 mph N/A   Clear
12:55 PM 77.0 °F - 23.0 °F 13% 30.25 in 10.0 mi ESE 13.8 mph 21.9 mph N/A   Clear
1:15 PM 77.0 °F - 23.0 °F 13% 30.24 in 10.0 mi SE 16.1 mph 25.3 mph N/A   Clear
1:35 PM 77.0 °F - 23.0 °F 13% 30.23 in 10.0 mi SE 16.1 mph 25.3 mph N/A   Clear
1:55 PM 77.0 °F - 24.8 °F 14% 30.23 in 10.0 mi SE 15.0 mph 23.0 mph N/A   Clear
2:15 PM 77.0 °F - 24.8 °F 14% 30.23 in 10.0 mi SE 16.1 mph 23.0 mph N/A   Clear
2:35 PM 75.2 °F - 23.0 °F 14% 30.23 in 10.0 mi SE 13.8 mph - N/A   Clear
2:55 PM 75.2 °F - 23.0 °F 14% 30.23 in 10.0 mi SE 13.8 mph 18.4 mph N/A   Clear
3:15 PM 75.2 °F - 24.8 °F 15% 30.23 in 10.0 mi ESE 11.5 mph - N/A   Clear
3:35 PM 75.2 °F - 24.8 °F 15% 30.23 in 10.0 mi ESE 9.2 mph - N/A   Clear
3:55 PM 75.2 °F - 24.8 °F 15% 30.23 in 10.0 mi SE 10.4 mph - N/A   Clear
4:15 PM 73.4 °F - 24.8 °F 16% 30.23 in 10.0 mi ESE 8.1 mph - N/A   Clear
4:35 PM 71.6 °F - 24.8 °F 17% 30.23 in 10.0 mi ESE 5.8 mph - N/A   Clear
4:55 PM 71.6 °F - 24.8 °F 17% 30.23 in 10.0 mi ESE 8.1 mph - N/A   Clear
5:15 PM 66.2 °F - 24.8 °F 21% 30.23 in 10.0 mi East 6.9 mph - N/A   Clear
5:35 PM 64.4 °F - 24.8 °F 22% 30.23 in 10.0 mi ESE 6.9 mph - N/A   Clear
5:55 PM 59.0 °F - 24.8 °F 27% 30.24 in 10.0 mi ESE 5.8 mph - N/A   Clear
6:15 PM 57.2 °F - 24.8 °F 29% 30.24 in 10.0 mi ESE 5.8 mph - N/A   Clear
6:35 PM 57.2 °F - 23.0 °F 27% 30.24 in 10.0 mi ENE 3.5 mph - N/A   Clear
6:55 PM 57.2 °F - 23.0 °F 27% 30.25 in 10.0 mi Calm Calm - N/A   Clear
7:15 PM 55.4 °F - 23.0 °F 29% 30.25 in 10.0 mi Calm Calm - N/A   Clear
7:35 PM 57.2 °F - 23.0 °F 27% 30.25 in 10.0 mi East 4.6 mph - N/A   Clear
7:55 PM 55.4 °F - 23.0 °F 29% 30.25 in 10.0 mi Calm Calm - N/A   Clear
8:15 PM 53.6 °F - 24.8 °F 33% 30.25 in 10.0 mi SE 6.9 mph - N/A   Clear
8:35 PM 51.8 °F - 23.0 °F 33% 30.25 in 10.0 mi ESE 4.6 mph - N/A   Clear
8:55 PM 53.6 °F - 23.0 °F 30% 30.25 in 10.0 mi Calm Calm - N/A   Clear
9:15 PM 50.0 °F - 24.8 °F 37% 30.26 in 10.0 mi SE 6.9 mph - N/A   Clear
9:35 PM 50.0 °F - 24.8 °F 37% 30.26 in 10.0 mi SE 8.1 mph - N/A   Clear
9:55 PM 53.6 °F - 24.8 °F 33% 30.25 in 10.0 mi ESE 8.1 mph - N/A   Clear
10:15 PM 51.8 °F - 24.8 °F 35% 30.25 in 10.0 mi East 5.8 mph - N/A   Clear
10:35 PM 50.0 °F - 24.8 °F 37% 30.25 in 10.0 mi ESE 6.9 mph - N/A   Clear
10:55 PM 51.8 °F - 24.8 °F 35% 30.25 in 10.0 mi Calm Calm - N/A   Clear
11:15 PM 53.6 °F - 24.8 °F 33% 30.25 in 10.0 mi ESE 4.6 mph - N/A   Clear
11:35 PM 53.6 °F - 24.8 °F 33% 30.25 in 10.0 mi ESE 6.9 mph - N/A   Clear
11:55 PM 48.2 °F - 24.8 °F 40% 30.24 in 10.0 mi ESE 4.6 mph - N/A   Clear